Wind_Speed
7 7 7 7 8 8 8 8 9 9 9 10 10 10 10 10 10 10 10 10 9 8 8 7 6 6 6 5 5 5 5 5 5 5 5 5 6 6 5 5 5 6 6
9 9 8 8 8 8 8 8 8 9 9 10 10 11 11 11 10 10 10 10 9 9 8 7 7 6 6 5 5 4 4 4 4 4 4 5 5 5 5 5 4 4 5
10 10 10 9 9 9 9 8 8 9 9 10 10 11 11 11 11 11 10 10 10 9 9 8 7 7 7 6 6 5 4 4 3 3 3 3 4 4 4 4 4 4 4
11 11 12 11 11 11 10 9 9 10 10 10 11 11 11 12 12 11 11 11 10 10 10 9 8 7 7 7 7 6 5 4 4 3 2 2 2 2 2 3 3 3 3
12 12 12 12 12 12 11 11 11 11 12 12 12 13 13 13 13 12 12 12 11 11 11 10 9 9 9 8 8 8 7 6 5 4 3 2 2 1 1 1 1 1 2
13 13 13 13 13 13 13 12 12 12 13 13 14 14 14 14 14 14 14 13 13 12 12 12 11 11 11 10 10 10 9 8 8 6 5 4 4 3 2 1 0 0 1
14 14 15 14 15 15 14 14 14 15 15 16 16 16 16 16 16 16 16 15 15 14 13 13 13 13 13 12 12 12 12 11 10 9 8 7 6 5 4 3 2 2 2
16 16 16 16 16 16 16 17 17 17 18 18 18 19 19 19 19 18 18 17 17 16 15 15 14 14 15 15 15 14 14 13 13 12 11 10 9 8 7 6 5 4 4
17 17 17 17 17 17 18 18 19 19 20 21 21 22 22 22 22 21 20 20 19 18 17 17 16 16 16 16 16 16 17 16 16 15 14 13 12 11 10 9 8 7 6
19 18 19 19 19 19 20 20 21 21 22 23 23 24 24 25 25 24 24 23 22 22 20 19 18 17 17 18 18 18 19 19 19 17 16 15 15 14 13 12 11 10 9
21 21 21 21 21 21 21 22 22 22 23 24 25 25 26 27 27 27 26 25 25 24 23 21 20 19 19 19 19 19 20 21 21 20 19 18 18 17 16 15 14 13 13
23 23 23 22 22 22 22 23 24 24 25 26 27 27 29 29 29 28 28 27 27 26 24 23 22 21 20 20 20 20 21 22 23 22 21 21 20 20 19 18 17 17 16
25 25 24 24 25 25 26 26 26 26 27 29 29 29 31 31 31 31 30 29 29 28 26 25 24 23 23 22 21 21 22 22 23 23 22 22 22 21 22 21 21 20 19
26 26 27 26 27 29 29 29 29 30 30 31 31 32 33 32 33 33 32 30 30 30 29 28 26 25 25 24 23 23 23 24 23 23 23 22 23 23 23 23 23 22 22
28 28 29 30 30 31 32 33 33 33 34 34 34 34 34 34 34 34 34 33 32 31 30 30 28 27 26 27 26 25 24 25 24 23 22 22 24 24 24 23 24 24 24
30 31 31 33 34 34 35 36 37 37 37 36 36 36 35 36 36 35 34 35 34 33 33 31 31 30 28 28 28 27 26 25 24 24 23 23 23 24 24 24 23 23 24
32 33 33 34 35 36 37 38 39 39 39 38 38 37 37 36 36 36 36 35 34 34 34 33 32 31 30 29 28 28 27 27 25 24 24 24 24 24 24 23 23 22 22
34 35 35 36 37 38 38 39 40 40 41 40 39 38 37 37 37 37 37 36 36 34 34 34 34 31 31 30 29 28 27 27 26 25 25 24 24 24 23 21 22 22 22
33 34 36 37 38 38 39 40 42 42 41 41 42 41 39 38 38 38 37 36 35 34 33 33 34 32 31 31 31 31 29 27 26 26 25 24 24 23 23 22 21 21 22
31 33 35 36 38 40 41 42 42 42 42 42 42 42 40 40 39 39 38 37 35 33 32 33 33 32 32 33 33 32 30 28 27 26 25 24 23 22 22 22 21 21 21
32 34 35 37 39 41 41 43 44 43 43 43 44 43 42 40 40 39 38 37 35 34 33 32 32 33 33 32 32 31 30 29 28 26 25 24 23 22 22 22 22 21 21
32 34 36 38 39 41 42 43 43 42 41 41 42 42 41 40 40 39 38 37 34 33 32 31 30 32 32 32 32 31 30 29 29 28 27 26 25 24 24 23 22 21 20
31 33 35 37 38 39 40 40 40 40 40 40 41 40 39 40 40 39 38 36 35 34 33 32 30 30 31 32 32 31 29 29 30 30 28 28 27 26 26 25 23 22 21
32 34 34 36 38 39 40 41 41 41 41 42 42 41 41 41 41 40 39 38 37 36 35 34 33 32 31 32 33 33 32 31 31 30 30 30 29 28 28 27 25 24 23
32 34 34 36 38 39 41 42 42 43 43 44 44 43 43 43 42 41 41 41 40 39 38 36 34 34 33 34 35 35 34 33 33 32 31 32 31 31 30 29 27 26 24
34 36 37 38 38 40 41 42 43 44 44 44 44 44 43 43 43 43 42 42 41 41 41 40 39 38 37 37 37 37 36 35 35 34 34 33 33 32 32 31 29 28 26
Wind_Direction
311 315 322 326 330 337 343 347 348 348 345 344 345 348 350 354 357 360 1 1 2 1 0 0 360 358 0 4 8 13 23 34 42 48 53 56 60 67 75 82 96 105 109
304 307 311 314 317 322 327 333 338 340 339 338 339 340 342 344 348 351 351 352 351 348 346 345 344 344 341 339 342 347 355 7 21 33 42 49 55 63 73 81 90 110 115
302 304 305 308 308 311 316 322 328 331 331 331 332 333 335 336 339 341 343 342 340 337 334 332 329 327 326 322 320 321 326 333 345 2 20 36 46 58 73 82 89 102 118
304 303 302 303 303 306 310 315 319 322 323 324 324 326 328 329 330 333 334 334 332 329 324 319 316 313 309 308 305 302 301 303 306 314 327 355 19 44 67 80 91 105 119
305 303 302 301 302 304 306 309 314 316 317 317 318 319 321 322 323 325 325 325 324 321 317 311 306 300 297 294 292 290 288 285 285 286 284 287 302 334 33 63 82 112 132
304 301 300 300 302 303 304 306 309 311 310 311 312 313 315 317 318 318 318 318 317 313 309 304 299 293 287 285 283 280 278 277 275 271 269 266 267 270 273 279 301 246 210
303 299 299 298 300 302 303 305 305 305 305 307 308 309 310 312 313 312 313 312 312 310 304 299 295 289 283 279 277 274 272 270 269 266 262 262 261 261 263 264 261 263 260
301 299 301 299 300 302 304 304 303 303 303 304 305 307 307 308 309 308 307 309 308 305 300 295 290 287 281 276 272 270 269 265 264 263 260 259 258 257 258 259 258 257 258
301 301 301 300 300 302 303 302 301 300 301 302 302 303 304 304 305 305 303 304 304 301 297 292 288 285 281 276 271 268 267 265 262 260 258 257 256 254 254 255 255 254 253
301 303 303 302 302 302 302 303 302 300 300 301 300 302 303 303 303 302 301 300 298 297 294 289 286 282 280 276 271 268 266 264 261 260 257 254 254 253 253 253 253 252 251
300 302 303 302 302 302 303 304 305 303 302 301 301 302 303 303 302 300 299 297 295 294 290 286 282 279 276 274 271 268 265 262 261 259 257 255 253 252 252 251 250 250 249
298 302 303 302 302 303 304 304 304 303 302 302 302 301 302 301 300 299 297 296 294 292 288 284 279 277 274 271 269 268 266 262 260 258 256 254 252 251 250 249 247 248 248
294 297 299 298 300 302 303 303 303 302 302 302 301 301 301 300 299 297 296 295 294 289 286 284 277 274 271 269 267 266 265 263 263 260 255 253 253 252 249 248 247 247 247
290 294 295 296 297 299 301 301 301 300 299 300 301 300 300 297 297 297 295 295 294 288 285 283 276 271 269 268 267 265 264 263 264 262 256 252 252 251 249 248 247 248 248
286 288 291 292 293 295 297 298 298 298 298 299 301 299 299 296 295 294 294 294 293 287 282 282 277 271 270 268 266 265 264 263 262 261 257 254 253 251 248 246 247 248 247
284 285 286 289 289 292 294 295 296 296 296 296 298 298 295 294 293 291 291 292 292 289 283 278 274 273 272 268 265 264 263 262 260 259 257 253 253 251 248 245 247 247 245
282 283 284 285 286 288 290 291 293 293 294 294 295 295 294 292 293 291 290 291 290 289 285 279 273 272 269 268 265 265 264 261 259 258 255 252 251 248 245 244 244 244 244
280 281 281 284 286 288 288 289 290 291 292 291 291 291 290 289 291 292 289 288 288 288 284 279 275 271 267 264 262 263 262 261 258 256 254 250 249 246 243 242 242 243 243
279 280 280 282 283 285 286 287 289 289 290 291 291 290 288 289 289 290 288 286 285 285 283 278 274 270 265 261 260 262 261 260 258 253 250 248 247 242 240 241 241 244 243
279 280 281 282 283 284 286 287 289 288 288 289 289 290 289 289 289 287 287 284 281 281 281 277 271 265 264 261 260 260 259 257 256 250 245 244 243 240 237 239 242 245 244
280 280 282 283 283 284 285 286 287 288 287 287 287 286 287 288 288 286 285 282 280 279 280 276 270 265 262 259 257 257 257 254 252 246 242 242 240 239 237 236 238 242 240
281 281 282 283 284 284 286 286 286 287 287 287 287 287 285 285 285 285 283 280 279 278 276 276 270 262 257 257 255 256 254 253 249 245 242 241 240 236 236 234 236 238 237
286 286 285 285 285 285 286 287 288 288 288 288 287 287 286 285 283 283 281 279 277 276 274 274 268 261 257 256 256 254 252 252 249 245 242 240 239 236 235 233 233 235 234
290 290 289 288 287 287 287 288 289 289 288 288 287 286 286 286 284 282 279 278 277 275 274 272 267 264 259 254 254 253 250 249 246 244 241 238 238 237 235 234 233 233 230
296 295 293 292 291 290 290 290 290 289 288 288 287 286 285 284 282 280 278 276 275 273 271 270 266 262 260 256 252 252 249 247 244 242 240 238 237 236 235 234 233 232 230
302 300 298 296 295 294 293 292 291 290 289 289 288 287 286 284 282 280 277 275 273 271 269 267 263 259 258 256 253 249 247 246 242 240 238 237 235 234 234 232 232 230 232
Height
5913 5912 5911 5911 5910 5910 5909 5908 5907 5907 5906 5905 5905 5904 5903 5902 5901 5900 5899 5899 5898 5897 5896 5895 5895 5894 5893 5893 5892 5892 5892 5891 5891 5891 5891 5891 5891 5891 5892 5892 5893 5893 5894
5912 5911 5911 5911 5910 5909 5908 5908 5907 5907 5906 5905 5905 5904 5903 5902 5901 5900 5900 5899 5898 5897 5896 5895 5895 5894 5894 5893 5893 5892 5892 5892 5892 5892 5892 5892 5892 5892 5893 5893 5894 5895 5895
5911 5911 5910 5910 5909 5908 5908 5907 5907 5906 5905 5905 5904 5904 5903 5902 5901 5900 5899 5898 5898 5897 5896 5895 5895 5894 5894 5893 5893 5893 5892 5892 5892 5892 5892 5893 5893 5893 5893 5894 5895 5895 5896
5910 5910 5909 5909 5908 5908 5907 5906 5906 5905 5905 5904 5903 5903 5902 5902 5901 5900 5899 5898 5897 5896 5896 5895 5894 5894 5893 5893 5893 5893 5892 5892 5893 5893 5893 5893 5893 5894 5894 5894 5895 5896 5897
5909 5909 5908 5908 5907 5906 5906 5905 5905 5904 5904 5903 5902 5902 5901 5900 5900 5899 5898 5897 5896 5895 5895 5894 5894 5893 5893 5892 5892 5892 5892 5892 5892 5893 5893 5893 5893 5894 5894 5895 5895 5896 5897
5908 5907 5907 5906 5906 5905 5904 5904 5903 5903 5902 5901 5901 5900 5899 5899 5898 5897 5896 5896 5895 5894 5893 5893 5892 5892 5892 5891 5891 5891 5891 5892 5892 5892 5892 5892 5893 5893 5894 5894 5895 5896 5897
5907 5906 5905 5905 5904 5903 5903 5902 5901 5901 5900 5899 5899 5898 5897 5896 5896 5895 5895 5894 5893 5892 5891 5891 5890 5890 5890 5890 5889 5889 5890 5890 5890 5891 5891 5892 5892 5893 5893 5894 5895 5896 5897
5905 5904 5903 5903 5902 5901 5900 5900 5899 5898 5897 5897 5896 5895 5894 5894 5893 5893 5892 5891 5890 5890 5889 5888 5888 5887 5887 5887 5887 5887 5887 5888 5888 5889 5890 5890 5891 5891 5892 5893 5894 5895 5896
5902 5902 5901 5900 5900 5899 5898 5897 5896 5895 5894 5893 5893 5892 5891 5890 5890 5889 5889 5888 5887 5887 5886 5886 5885 5885 5884 5884 5884 5884 5885 5885 5886 5887 5888 5889 5889 5890 5891 5892 5893 5894 5895
5899 5899 5898 5898 5897 5896 5895 5894 5893 5892 5891 5890 5889 5888 5887 5887 5886 5885 5885 5884 5883 5883 5882 5882 5882 5881 5881 5881 5881 5881 5881 5882 5882 5883 5885 5886 5887 5888 5889 5890 5891 5892 5894
5896 5896 5895 5895 5894 5893 5892 5891 5889 5888 5887 5886 5885 5884 5883 5882 5881 5880 5880 5879 5878 5878 5877 5878 5877 5877 5877 5877 5877 5877 5877 5878 5879 5880 5881 5882 5883 5885 5886 5887 5889 5890 5892
5892 5892 5891 5891 5890 5889 5888 5887 5885 5884 5883 5882 5880 5879 5878 5877 5876 5875 5874 5874 5873 5872 5872 5872 5872 5872 5872 5873 5873 5873 5873 5873 5874 5876 5877 5878 5879 5881 5883 5884 5886 5887 5889
5888 5887 5887 5886 5885 5885 5884 5883 5881 5880 5879 5877 5876 5874 5873 5872 5870 5869 5869 5868 5867 5866 5866 5866 5867 5867 5867 5868 5868 5868 5868 5869 5870 5871 5873 5874 5875 5877 5879 5880 5882 5884 5886
5883 5882 5882 5881 5881 5880 5878 5878 5877 5875 5874 5872 5871 5869 5867 5866 5865 5863 5862 5862 5861 5860 5860 5860 5860 5860 5861 5862 5863 5864 5864 5864 5865 5866 5868 5870 5871 5873 5875 5876 5878 5880 5882
5879 5877 5877 5877 5876 5874 5873 5872 5871 5869 5868 5866 5864 5863 5861 5859 5858 5857 5856 5855 5854 5853 5853 5853 5853 5854 5855 5856 5857 5858 5859 5859 5860 5861 5862 5864 5866 5868 5870 5871 5873 5876 5877
5872 5872 5872 5871 5870 5869 5868 5866 5864 5863 5861 5859 5857 5855 5854 5852 5851 5850 5849 5848 5846 5845 5845 5846 5846 5847 5848 5849 5850 5851 5853 5854 5855 5856 5856 5859 5860 5862 5864 5866 5868 5870 5873
5867 5867 5867 5866 5864 5863 5862 5860 5858 5856 5853 5852 5850 5848 5846 5845 5844 5843 5842 5841 5839 5838 5838 5838 5838 5839 5841 5842 5843 5845 5846 5848 5849 5850 5851 5853 5855 5857 5859 5861 5863 5865 5868
5861 5861 5861 5859 5858 5857 5855 5853 5851 5849 5846 5844 5842 5841 5839 5837 5836 5835 5834 5833 5832 5831 5830 5830 5830 5831 5833 5834 5836 5837 5839 5841 5843 5844 5844 5845 5849 5852 5853 5856 5858 5860 5862
5856 5855 5854 5853 5851 5850 5848 5846 5844 5841 5839 5837 5835 5833 5831 5830 5829 5827 5826 5825 5824 5823 5822 5822 5822 5823 5824 5826 5828 5830 5832 5834 5836 5838 5840 5841 5844 5846 5849 5851 5853 5855 5857
5851 5849 5848 5846 5844 5842 5840 5838 5836 5833 5831 5829 5827 5825 5823 5822 5821 5820 5819 5817 5815 5815 5814 5814 5814 5814 5815 5818 5821 5823 5825 5827 5829 5831 5834 5836 5839 5840 5843 5846 5848 5851 5853
5844 5843 5841 5839 5837 5834 5832 5830 5827 5825 5823 5820 5819 5817 5815 5814 5812 5811 5810 5808 5807 5807 5807 5806 5806 5806 5808 5810 5813 5815 5818 5820 5822 5824 5828 5831 5833 5835 5838 5841 5844 5846 5848
5838 5836 5834 5831 5829 5826 5824 5821 5818 5816 5814 5812 5810 5808 5806 5804 5803 5802 5801 5799 5799 5799 5798 5798 5798 5799 5801 5803 5805 5807 5810 5813 5815 5818 5822 5825 5828 5831 5834 5836 5839 5841 5843
5831 5829 5826 5823 5821 5818 5815 5813 5810 5807 5805 5803 5801 5799 5797 5795 5794 5793 5793 5792 5791 5791 5791 5790 5790 5791 5793 5796 5798 5800 5802 5806 5809 5812 5815 5818 5821 5825 5827 5831 5834 5836 5839
5824 5821 5818 5815 5812 5809 5806 5803 5801 5798 5795 5793 5790 5789 5787 5786 5785 5784 5783 5783 5782 5782 5782 5782 5782 5783 5785 5788 5790 5792 5795 5798 5801 5804 5808 5811 5814 5818 5821 5825 5828 5830 5834
5816 5813 5810 5807 5803 5800 5796 5793 5790 5787 5784 5782 5779 5778 5777 5775 5774 5773 5773 5773 5772 5772 5773 5773 5773 5775 5776 5779 5782 5785 5787 5790 5793 5797 5800 5804 5807 5811 5815 5819 5822 5825 5828
5808 5804 5801 5797 5794 5790 5786 5782 5779 5776 5773 5770 5768 5766 5765 5763 5762 5761 5761 5761 5761 5762 5762 5763 5764 5765 5767 5769 5772 5775 5779 5782 5785 5789 5792 5796 5800 5804 5808 5812 5816 5819 5823